contact:dominique.lefevre@mio.osupytheas.fr, maurice.libes@osupytheas.fr, didier.mallarino@osupytheas.fr
Project:EMSO http://www.emso-fr.org/EMSO-France
Depth: 2436.0 m
Title:EMSO Ligure Ouest : Data MII capteur CSTAR
DateTime,Latitude,Longitude,Instrument_Serial,Reference_Counts,Signal_Counts,Corrected_Signal_raw_counts,Calculated_Beam_c_inverse_meters,Internal_thermistor_counts
DateTime,Latitude,Longitude,Instrument_Serial,Reference_Counts,Signal_Counts,Corrected_Signal_raw_counts,Calculated_Beam_c_inverse_meters,Internal_thermistor_counts
2019-06-04T00:01:26,42.805,6.029,CST-1368DR,9214,12895,15556,0.015,551
2019-06-04T00:04:28,42.805,6.029,CST-1368DR,9214,12896,15557,0.015,551
2019-06-04T00:07:29,42.805,6.029,CST-1368DR,9214,12895,15557,0.015,551
2019-06-04T00:10:31,42.805,6.029,CST-1368DR,9214,12895,15556,0.015,551
2019-06-04T00:13:32,42.805,6.029,CST-1368DR,9214,12894,15556,0.015,550
2019-06-04T00:16:33,42.805,6.029,CST-1368DR,9214,12892,15553,0.016,550
2019-06-04T00:19:35,42.805,6.029,CST-1368DR,9214,12895,15556,0.015,551
2019-06-04T00:22:36,42.805,6.029,CST-1368DR,9214,12893,15554,0.016,551
2019-06-04T00:25:38,42.805,6.029,CST-1368DR,9214,12895,15556,0.015,551
2019-06-04T00:28:39,42.805,6.029,CST-1368DR,9214,12896,15557,0.015,551
2019-06-04T00:31:41,42.805,6.029,CST-1368DR,9214,12896,15557,0.015,551
2019-06-04T00:34:42,42.805,6.029,CST-1368DR,9214,12896,15558,0.015,551
2019-06-04T00:37:43,42.805,6.029,CST-1368DR,9214,12894,15556,0.015,551
2019-06-04T00:40:45,42.805,6.029,CST-1368DR,9214,12896,15557,0.015,551
2019-06-04T00:43:46,42.805,6.029,CST-1368DR,9214,12894,15555,0.016,551
2019-06-04T00:46:48,42.805,6.029,CST-1368DR,9214,12887,15547,0.018,551
2019-06-04T00:49:49,42.805,6.029,CST-1368DR,9213,12888,15549,0.017,551
2019-06-04T00:52:50,42.805,6.029,CST-1368DR,9213,12894,15557,0.015,551
2019-06-04T00:55:52,42.805,6.029,CST-1368DR,9213,12894,15556,0.015,551
2019-06-04T00:58:53,42.805,6.029,CST-1368DR,9213,12896,15559,0.015,551
2019-06-04T01:01:55,42.805,6.029,CST-1368DR,9213,12894,15557,0.015,551
2019-06-04T01:04:56,42.805,6.029,CST-1368DR,9213,12894,15557,0.015,551
2019-06-04T01:07:57,42.805,6.029,CST-1368DR,9213,12895,15558,0.015,551
2019-06-04T01:10:59,42.805,6.029,CST-1368DR,9213,12894,15556,0.015,551
2019-06-04T01:14:00,42.805,6.029,CST-1368DR,9213,12891,15553,0.016,551
2019-06-04T01:17:02,42.805,6.029,CST-1368DR,9213,12894,15557,0.015,551
2019-06-04T01:20:03,42.805,6.029,CST-1368DR,9213,12891,15554,0.016,551
2019-06-04T01:23:04,42.805,6.029,CST-1368DR,9213,12893,15556,0.015,551
2019-06-04T01:26:06,42.805,6.029,CST-1368DR,9213,12893,15555,0.016,551
2019-06-04T01:29:07,42.805,6.029,CST-1368DR,9213,12893,15556,0.015,551
2019-06-04T01:32:09,42.805,6.029,CST-1368DR,9213,12893,15556,0.015,551
2019-06-04T01:35:10,42.805,6.029,CST-1368DR,9213,12894,15557,0.015,551
2019-06-04T01:38:12,42.805,6.029,CST-1368DR,9213,12894,15557,0.015,551
2019-06-04T01:41:13,42.805,6.029,CST-1368DR,9213,12892,15554,0.016,551
2019-06-04T01:44:14,42.805,6.029,CST-1368DR,9213,12894,15557,0.015,551
2019-06-04T01:47:16,42.805,6.029,CST-1368DR,9213,12893,15556,0.015,551
2019-06-04T01:50:17,42.805,6.029,CST-1368DR,9213,12893,15556,0.015,550
2019-06-04T01:53:19,42.805,6.029,CST-1368DR,9213,12894,15557,0.015,551
2019-06-04T01:56:20,42.805,6.029,CST-1368DR,9213,12894,15557,0.015,551
2019-06-04T01:59:21,42.805,6.029,CST-1368DR,9213,12894,15556,0.015,551
2019-06-04T02:02:23,42.805,6.029,CST-1368DR,9213,12894,15557,0.015,551
2019-06-04T02:05:24,42.805,6.029,CST-1368DR,9213,12891,15553,0.016,551
2019-06-04T02:08:26,42.805,6.029,CST-1368DR,9212,12893,15557,0.015,551
2019-06-04T02:11:27,42.805,6.029,CST-1368DR,9213,12893,15556,0.015,551
2019-06-04T02:14:28,42.805,6.029,CST-1368DR,9213,12891,15553,0.016,551
2019-06-04T02:17:30,42.805,6.029,CST-1368DR,9213,12892,15555,0.016,551
2019-06-04T02:20:31,42.805,6.029,CST-1368DR,9213,12893,15556,0.015,551
2019-06-04T02:23:33,42.805,6.029,CST-1368DR,9213,12892,15555,0.016,551
2019-06-04T02:26:34,42.805,6.029,CST-1368DR,9212,12892,15556,0.015,551
2019-06-04T02:29:35,42.805,6.029,CST-1368DR,9212,12892,15557,0.015,550
2019-06-04T02:32:37,42.805,6.029,CST-1368DR,9212,12891,15555,0.016,551
2019-06-04T02:35:38,42.805,6.029,CST-1368DR,9213,12894,15557,0.015,551
2019-06-04T02:38:40,42.805,6.029,CST-1368DR,9212,12893,15557,0.015,551
2019-06-04T02:41:41,42.805,6.029,CST-1368DR,9212,12891,15555,0.016,551
2019-06-04T02:44:43,42.805,6.029,CST-1368DR,9212,12892,15557,0.015,551
2019-06-04T02:47:44,42.805,6.029,CST-1368DR,9212,12893,15557,0.015,551
2019-06-04T02:50:45,42.805,6.029,CST-1368DR,9212,12893,15558,0.015,551
2019-06-04T02:53:47,42.805,6.029,CST-1368DR,9212,12893,15557,0.015,551
2019-06-04T02:56:48,42.805,6.029,CST-1368DR,9212,12890,15553,0.016,551
2019-06-04T02:59:50,42.805,6.029,CST-1368DR,9212,12893,15557,0.015,551
2019-06-04T03:02:51,42.805,6.029,CST-1368DR,9212,12892,15556,0.015,551
2019-06-04T03:05:52,42.805,6.029,CST-1368DR,9212,12893,15557,0.015,551
2019-06-04T03:08:54,42.805,6.029,CST-1368DR,9212,12892,15556,0.015,551
2019-06-04T03:11:55,42.805,6.029,CST-1368DR,9212,12893,15557,0.015,551
2019-06-04T03:14:57,42.805,6.029,CST-1368DR,9212,12891,15554,0.016,551
2019-06-04T03:17:58,42.805,6.029,CST-1368DR,9212,12891,15555,0.016,551
2019-06-04T03:20:59,42.805,6.029,CST-1368DR,9212,12890,15554,0.016,550
2019-06-04T03:24:01,42.805,6.029,CST-1368DR,9212,12889,15553,0.016,551
2019-06-04T03:27:02,42.805,6.029,CST-1368DR,9212,12890,15553,0.016,551
2019-06-04T03:30:04,42.805,6.029,CST-1368DR,9212,12891,15555,0.016,551
2019-06-04T03:33:05,42.805,6.029,CST-1368DR,9212,12891,15555,0.016,551
2019-06-04T03:36:07,42.805,6.029,CST-1368DR,9212,12886,15549,0.017,550
2019-06-04T03:39:08,42.805,6.029,CST-1368DR,9212,12893,15557,0.015,551
2019-06-04T03:42:09,42.805,6.029,CST-1368DR,9212,12891,15555,0.016,551
2019-06-04T03:45:11,42.805,6.029,CST-1368DR,9212,12891,15555,0.016,551
2019-06-04T03:48:12,42.805,6.029,CST-1368DR,9212,12892,15557,0.015,551
2019-06-04T03:51:14,42.805,6.029,CST-1368DR,9212,12890,15554,0.016,551
2019-06-04T03:54:15,42.805,6.029,CST-1368DR,9212,12892,15557,0.015,551
2019-06-04T03:57:16,42.805,6.029,CST-1368DR,9212,12891,15554,0.016,551
2019-06-04T04:00:18,42.805,6.029,CST-1368DR,9212,12891,15555,0.016,551
2019-06-04T04:03:19,42.805,6.029,CST-1368DR,9211,12890,15555,0.016,551
2019-06-04T04:06:21,42.805,6.029,CST-1368DR,9212,12891,15555,0.016,550
2019-06-04T04:09:22,42.805,6.029,CST-1368DR,9211,12889,15554,0.016,551
2019-06-04T04:12:23,42.805,6.029,CST-1368DR,9211,12890,15555,0.016,551
2019-06-04T04:15:25,42.805,6.029,CST-1368DR,9211,12891,15556,0.015,551
2019-06-04T04:18:26,42.805,6.029,CST-1368DR,9211,12888,15552,0.016,551
2019-06-04T04:21:28,42.805,6.029,CST-1368DR,9211,12891,15556,0.015,551
2019-06-04T04:24:29,42.805,6.029,CST-1368DR,9211,12888,15553,0.016,551
2019-06-04T04:27:30,42.805,6.029,CST-1368DR,9211,12889,15554,0.016,551
2019-06-04T04:30:32,42.805,6.029,CST-1368DR,9211,12891,15556,0.015,551
2019-06-04T04:33:33,42.805,6.029,CST-1368DR,9211,12886,15551,0.017,551
2019-06-04T04:36:35,42.805,6.029,CST-1368DR,9211,12890,15556,0.015,551
2019-06-04T04:39:36,42.805,6.029,CST-1368DR,9211,12891,15556,0.015,551
2019-06-04T04:42:38,42.805,6.029,CST-1368DR,9211,12891,15557,0.015,551
2019-06-04T04:45:39,42.805,6.029,CST-1368DR,9211,12891,15556,0.015,551
2019-06-04T04:48:40,42.805,6.029,CST-1368DR,9211,12890,15555,0.016,550
2019-06-04T04:51:42,42.805,6.029,CST-1368DR,9211,12891,15557,0.015,551
2019-06-04T04:54:43,42.805,6.029,CST-1368DR,9211,12891,15556,0.015,551
2019-06-04T04:57:45,42.805,6.029,CST-1368DR,9211,12890,15555,0.016,551
2019-06-04T05:00:46,42.805,6.029,CST-1368DR,9211,12891,15556,0.015,551
2019-06-04T05:03:47,42.805,6.029,CST-1368DR,9211,12888,15553,0.016,551
2019-06-04T05:06:49,42.805,6.029,CST-1368DR,9211,12890,15555,0.016,551
2019-06-04T05:09:50,42.805,6.029,CST-1368DR,9211,12876,15539,0.020,551
2019-06-04T05:12:52,42.805,6.029,CST-1368DR,9211,12890,15555,0.016,550
2019-06-04T05:15:53,42.805,6.029,CST-1368DR,9211,12890,15555,0.016,551
2019-06-04T05:18:54,42.805,6.029,CST-1368DR,9211,12889,15554,0.016,551
2019-06-04T05:21:56,42.805,6.029,CST-1368DR,9211,12890,15556,0.015,550
2019-06-04T05:24:57,42.805,6.029,CST-1368DR,9211,12891,15556,0.015,551
2019-06-04T05:27:59,42.805,6.029,CST-1368DR,9210,12888,15554,0.016,550
2019-06-04T05:31:00,42.805,6.029,CST-1368DR,9210,12890,15557,0.015,550
2019-06-04T05:34:01,42.805,6.029,CST-1368DR,9210,12890,15556,0.015,551
2019-06-04T05:37:03,42.805,6.029,CST-1368DR,9210,12890,15556,0.015,551
2019-06-04T05:40:04,42.805,6.029,CST-1368DR,9210,12890,15557,0.015,551
2019-06-04T05:43:06,42.805,6.029,CST-1368DR,9210,12889,15556,0.015,551
2019-06-04T05:46:07,42.805,6.029,CST-1368DR,9210,12890,15557,0.015,551
2019-06-04T05:49:09,42.805,6.029,CST-1368DR,9210,12888,15554,0.016,551
2019-06-04T05:52:10,42.805,6.029,CST-1368DR,9210,12889,15556,0.015,550
2019-06-04T05:55:11,42.805,6.029,CST-1368DR,9210,12890,15556,0.015,550
2019-06-04T05:58:13,42.805,6.029,CST-1368DR,9210,12890,15557,0.015,551
2019-06-04T06:01:14,42.805,6.029,CST-1368DR,9210,12890,15557,0.015,550
2019-06-04T06:04:16,42.805,6.029,CST-1368DR,9210,12889,15555,0.016,551
2019-06-04T06:07:17,42.805,6.029,CST-1368DR,9210,12889,15556,0.015,550
2019-06-04T06:10:18,42.805,6.029,CST-1368DR,9210,12890,15556,0.015,550
2019-06-04T06:13:20,42.805,6.029,CST-1368DR,9210,12890,15557,0.015,551
2019-06-04T06:16:21,42.805,6.029,CST-1368DR,9210,12890,15557,0.015,551
2019-06-04T06:19:23,42.805,6.029,CST-1368DR,9210,12882,15547,0.018,551
2019-06-04T06:22:24,42.805,6.029,CST-1368DR,9210,12888,15554,0.016,551
2019-06-04T06:25:25,42.805,6.029,CST-1368DR,9210,12889,15555,0.016,551
2019-06-04T06:28:27,42.805,6.029,CST-1368DR,9210,12890,15557,0.015,551
2019-06-04T06:31:28,42.805,6.029,CST-1368DR,9210,12890,15557,0.015,551
2019-06-04T06:34:30,42.805,6.029,CST-1368DR,9210,12889,15555,0.016,551
2019-06-04T06:37:31,42.805,6.029,CST-1368DR,9210,12885,15550,0.017,551
2019-06-04T06:40:32,42.805,6.029,CST-1368DR,9209,12887,15555,0.016,551
2019-06-04T06:43:34,42.805,6.029,CST-1368DR,9210,12887,15554,0.016,551
2019-06-04T06:46:35,42.805,6.029,CST-1368DR,9209,12889,15557,0.015,551
2019-06-04T06:49:37,42.805,6.029,CST-1368DR,9209,12888,15555,0.016,551
2019-06-04T06:52:38,42.805,6.029,CST-1368DR,9209,12887,15555,0.016,551
2019-06-04T06:55:40,42.805,6.029,CST-1368DR,9209,12886,15554,0.016,550
2019-06-04T06:58:41,42.805,6.029,CST-1368DR,9209,12890,15558,0.015,551
2019-06-04T07:01:42,42.805,6.029,CST-1368DR,9209,12888,15556,0.015,550
2019-06-04T07:04:44,42.805,6.029,CST-1368DR,9209,12889,15557,0.015,551
2019-06-04T07:07:45,42.805,6.029,CST-1368DR,9209,12888,15556,0.015,551
2019-06-04T07:10:47,42.805,6.029,CST-1368DR,9209,12889,15557,0.015,550
2019-06-04T07:13:48,42.805,6.029,CST-1368DR,9209,12887,15555,0.016,551
2019-06-04T07:16:49,42.805,6.029,CST-1368DR,9209,12888,15556,0.015,551
2019-06-04T07:19:51,42.805,6.029,CST-1368DR,9209,12890,15558,0.015,551
2019-06-04T07:22:52,42.805,6.029,CST-1368DR,9209,12889,15557,0.015,551
2019-06-04T07:25:54,42.805,6.029,CST-1368DR,9209,12888,15556,0.015,551
2019-06-04T07:28:55,42.805,6.029,CST-1368DR,9209,12887,15555,0.016,551
2019-06-04T07:31:56,42.805,6.029,CST-1368DR,9209,12889,15558,0.015,551
2019-06-04T07:34:58,42.805,6.029,CST-1368DR,9209,12888,15555,0.016,551
2019-06-04T07:37:59,42.805,6.029,CST-1368DR,9209,12887,15555,0.016,551
2019-06-04T07:41:01,42.805,6.029,CST-1368DR,9209,12889,15557,0.015,551
2019-06-04T07:44:02,42.805,6.029,CST-1368DR,9209,12888,15556,0.015,551
2019-06-04T07:47:03,42.805,6.029,CST-1368DR,9209,12889,15557,0.015,551
2019-06-04T07:50:05,42.805,6.029,CST-1368DR,9209,12888,15556,0.015,551
2019-06-04T07:53:06,42.805,6.029,CST-1368DR,9209,12883,15550,0.017,551
2019-06-04T07:56:08,42.805,6.029,CST-1368DR,9209,12886,15554,0.016,551
2019-06-04T07:59:09,42.805,6.029,CST-1368DR,9209,12884,15551,0.017,550
2019-06-04T08:02:11,42.805,6.029,CST-1368DR,9209,12885,15552,0.016,551
2019-06-04T08:05:12,42.805,6.029,CST-1368DR,9209,12885,15553,0.016,551
2019-06-04T08:08:13,42.805,6.029,CST-1368DR,9209,12888,15555,0.016,551
2019-06-04T08:11:15,42.805,6.029,CST-1368DR,9209,12888,15555,0.016,551
2019-06-04T08:14:16,42.805,6.029,CST-1368DR,9208,12881,15549,0.017,551
2019-06-04T08:17:18,42.805,6.029,CST-1368DR,9208,12878,15545,0.018,551
2019-06-04T08:20:19,42.805,6.029,CST-1368DR,9209,12886,15553,0.016,551
2019-06-04T08:23:20,42.805,6.029,CST-1368DR,9209,12887,15555,0.016,551
2019-06-04T08:26:22,42.805,6.029,CST-1368DR,9208,12882,15551,0.017,551
2019-06-04T08:29:23,42.805,6.029,CST-1368DR,9209,12887,15555,0.016,551
2019-06-04T08:32:25,42.805,6.029,CST-1368DR,9209,12887,15555,0.016,551
2019-06-04T08:35:26,42.805,6.029,CST-1368DR,9209,12886,15554,0.016,551
2019-06-04T08:38:27,42.805,6.029,CST-1368DR,9209,12886,15554,0.016,551
2019-06-04T08:41:29,42.805,6.029,CST-1368DR,9208,12870,15535,0.021,550
2019-06-04T08:44:30,42.805,6.029,CST-1368DR,9208,12886,15555,0.016,551
2019-06-04T08:47:32,42.805,6.029,CST-1368DR,9208,12888,15557,0.015,551
2019-06-04T08:50:33,42.805,6.029,CST-1368DR,9208,12887,15556,0.015,551
2019-06-04T08:53:35,42.805,6.029,CST-1368DR,9208,12887,15556,0.015,551
2019-06-04T08:56:36,42.805,6.029,CST-1368DR,9208,12887,15557,0.015,551
2019-06-04T08:59:37,42.805,6.029,CST-1368DR,9208,12887,15556,0.015,550
2019-06-04T09:02:39,42.805,6.029,CST-1368DR,9208,12885,15554,0.016,551
2019-06-04T09:05:40,42.805,6.029,CST-1368DR,9208,12888,15557,0.015,551
2019-06-04T09:08:42,42.805,6.029,CST-1368DR,9208,12888,15557,0.015,551
2019-06-04T09:11:43,42.805,6.029,CST-1368DR,9208,12888,15558,0.015,550
2019-06-04T09:14:44,42.805,6.029,CST-1368DR,9208,12888,15558,0.015,551
2019-06-04T09:17:46,42.805,6.029,CST-1368DR,9208,12887,15556,0.015,551
2019-06-04T09:20:47,42.805,6.029,CST-1368DR,9208,12884,15552,0.016,550
2019-06-04T09:23:49,42.805,6.029,CST-1368DR,9208,12886,15555,0.016,551
2019-06-04T09:26:50,42.805,6.029,CST-1368DR,9208,12883,15552,0.016,551
2019-06-04T09:29:51,42.805,6.029,CST-1368DR,9208,12887,15556,0.015,551
2019-06-04T09:32:53,42.805,6.029,CST-1368DR,9208,12886,15555,0.016,551
2019-06-04T09:35:54,42.805,6.029,CST-1368DR,9208,12875,15542,0.019,551
2019-06-04T09:38:56,42.805,6.029,CST-1368DR,9208,12887,15556,0.015,551
2019-06-04T09:41:57,42.805,6.029,CST-1368DR,9208,12886,15555,0.016,551
2019-06-04T09:44:58,42.805,6.029,CST-1368DR,9208,12887,15557,0.015,551
2019-06-04T09:48:00,42.805,6.029,CST-1368DR,9208,12876,15543,0.019,551
2019-06-04T09:51:01,42.805,6.029,CST-1368DR,9208,12884,15553,0.016,551
2019-06-04T09:54:03,42.805,6.029,CST-1368DR,9208,12886,15555,0.016,551
2019-06-04T09:57:04,42.805,6.029,CST-1368DR,9208,12887,15556,0.015,551
2019-06-04T10:00:06,42.805,6.029,CST-1368DR,9208,12886,15555,0.016,551
2019-06-04T10:03:07,42.805,6.029,CST-1368DR,9207,12885,15556,0.015,551
2019-06-04T10:06:08,42.805,6.029,CST-1368DR,9207,12876,15545,0.018,550
2019-06-04T10:09:10,42.805,6.029,CST-1368DR,9207,12881,15550,0.017,551
2019-06-04T10:12:11,42.805,6.029,CST-1368DR,9207,12886,15556,0.015,551
2019-06-04T10:15:13,42.805,6.029,CST-1368DR,9207,12884,15554,0.016,551
2019-06-04T10:18:14,42.805,6.029,CST-1368DR,9207,12885,15556,0.015,550
2019-06-04T10:21:15,42.805,6.029,CST-1368DR,9207,12885,15555,0.016,551
2019-06-04T10:24:17,42.805,6.029,CST-1368DR,9207,12885,15555,0.016,551
2019-06-04T10:27:18,42.805,6.029,CST-1368DR,9207,12887,15558,0.015,551
2019-06-04T10:30:20,42.805,6.029,CST-1368DR,9207,12884,15555,0.016,551
2019-06-04T10:33:21,42.805,6.029,CST-1368DR,9207,12887,15558,0.015,551
2019-06-04T10:36:22,42.805,6.029,CST-1368DR,9207,12883,15553,0.016,551
2019-06-04T10:39:24,42.805,6.029,CST-1368DR,9207,12883,15553,0.016,551
2019-06-04T10:42:25,42.805,6.029,CST-1368DR,9207,12879,15548,0.017,551
2019-06-04T10:45:27,42.805,6.029,CST-1368DR,9207,12884,15554,0.016,551
2019-06-04T10:48:28,42.805,6.029,CST-1368DR,9207,12885,15556,0.015,551
2019-06-04T10:51:29,42.805,6.029,CST-1368DR,9207,12885,15556,0.015,551
2019-06-04T10:54:31,42.805,6.029,CST-1368DR,9207,12886,15556,0.015,551
2019-06-04T10:57:32,42.805,6.029,CST-1368DR,9207,12885,15556,0.015,551
2019-06-04T11:00:34,42.805,6.029,CST-1368DR,9207,12884,15554,0.016,551
2019-06-04T11:03:35,42.805,6.029,CST-1368DR,9207,12886,15556,0.015,551
2019-06-04T11:06:37,42.805,6.029,CST-1368DR,9207,12885,15555,0.016,551
2019-06-04T11:09:38,42.805,6.029,CST-1368DR,9207,12885,15555,0.016,551
2019-06-04T11:12:39,42.805,6.029,CST-1368DR,9207,12885,15555,0.016,551
2019-06-04T11:15:41,42.805,6.029,CST-1368DR,9207,12886,15557,0.015,551
2019-06-04T11:18:42,42.805,6.029,CST-1368DR,9207,12883,15552,0.016,550
2019-06-04T11:21:44,42.805,6.029,CST-1368DR,9207,12884,15555,0.016,551
2019-06-04T11:24:45,42.805,6.029,CST-1368DR,9207,12884,15554,0.016,551
2019-06-04T11:27:46,42.805,6.029,CST-1368DR,9207,12885,15556,0.015,551
2019-06-04T11:30:48,42.805,6.029,CST-1368DR,9207,12884,15554,0.016,551
2019-06-04T11:33:49,42.805,6.029,CST-1368DR,9207,12883,15553,0.016,551
2019-06-04T11:36:51,42.805,6.029,CST-1368DR,9207,12886,15556,0.015,551
2019-06-04T11:39:52,42.805,6.029,CST-1368DR,9207,12885,15556,0.015,551
2019-06-04T11:42:53,42.805,6.029,CST-1368DR,9207,12881,15551,0.017,551
2019-06-04T11:45:55,42.805,6.029,CST-1368DR,9207,12886,15557,0.015,550
2019-06-04T11:48:56,42.805,6.029,CST-1368DR,9206,12885,15557,0.015,551
2019-06-04T11:51:58,42.805,6.029,CST-1368DR,9206,12886,15558,0.015,551
2019-06-04T11:54:59,42.805,6.029,CST-1368DR,9206,12884,15555,0.016,550
2019-06-04T11:58:00,42.805,6.029,CST-1368DR,9206,12881,15553,0.016,550
2019-06-04T12:01:02,42.805,6.029,CST-1368DR,9206,12886,15558,0.015,551
2019-06-04T12:04:03,42.805,6.029,CST-1368DR,9206,12883,15554,0.016,550
2019-06-04T12:07:05,42.805,6.029,CST-1368DR,9206,12886,15558,0.015,551
2019-06-04T12:10:06,42.805,6.029,CST-1368DR,9206,12883,15554,0.016,550
2019-06-04T12:13:08,42.805,6.029,CST-1368DR,9206,12884,15556,0.015,551
2019-06-04T12:16:09,42.805,6.029,CST-1368DR,9206,12883,15555,0.016,551
2019-06-04T12:19:10,42.805,6.029,CST-1368DR,9206,12884,15556,0.015,551
2019-06-04T12:22:12,42.805,6.029,CST-1368DR,9206,12884,15556,0.015,551
2019-06-04T12:25:13,42.805,6.029,CST-1368DR,9206,12884,15556,0.015,551
2019-06-04T12:28:15,42.805,6.029,CST-1368DR,9206,12884,15556,0.015,551
2019-06-04T12:31:16,42.805,6.029,CST-1368DR,9206,12883,15554,0.016,551
2019-06-04T12:34:17,42.805,6.029,CST-1368DR,9206,12883,15554,0.016,551
2019-06-04T12:37:19,42.805,6.029,CST-1368DR,9206,12884,15556,0.015,551
2019-06-04T12:40:20,42.805,6.029,CST-1368DR,9206,12876,15546,0.018,551
2019-06-04T12:43:22,42.805,6.029,CST-1368DR,9206,12884,15556,0.015,551
2019-06-04T12:46:23,42.805,6.029,CST-1368DR,9206,12885,15557,0.015,551
2019-06-04T12:49:24,42.805,6.029,CST-1368DR,9206,12882,15553,0.016,550
2019-06-04T12:52:26,42.805,6.029,CST-1368DR,9206,12884,15556,0.015,551
2019-06-04T12:55:27,42.805,6.029,CST-1368DR,9206,12885,15556,0.015,551
2019-06-04T12:58:29,42.805,6.029,CST-1368DR,9206,12885,15556,0.015,551
2019-06-04T13:01:30,42.805,6.029,CST-1368DR,9206,12884,15556,0.015,551
2019-06-04T13:04:31,42.805,6.029,CST-1368DR,9206,12881,15553,0.016,551
2019-06-04T13:07:33,42.805,6.029,CST-1368DR,9206,12884,15556,0.015,551
2019-06-04T13:10:34,42.805,6.029,CST-1368DR,9206,12884,15555,0.016,551
2019-06-04T13:13:36,42.805,6.029,CST-1368DR,9205,12883,15556,0.015,551
2019-06-04T13:16:37,42.805,6.029,CST-1368DR,9205,12883,15556,0.015,551
2019-06-04T13:19:39,42.805,6.029,CST-1368DR,9205,12882,15555,0.016,551
2019-06-04T13:22:40,42.805,6.029,CST-1368DR,9205,12881,15554,0.016,551
2019-06-04T13:25:41,42.805,6.029,CST-1368DR,9205,12883,15556,0.015,550
2019-06-04T13:28:43,42.805,6.029,CST-1368DR,9205,12884,15557,0.015,551
2019-06-04T13:31:44,42.805,6.029,CST-1368DR,9205,12883,15556,0.015,551
2019-06-04T13:34:46,42.805,6.029,CST-1368DR,9205,12881,15553,0.016,551
2019-06-04T13:37:47,42.805,6.029,CST-1368DR,9205,12881,15553,0.016,551
2019-06-04T13:40:48,42.805,6.029,CST-1368DR,9205,12882,15555,0.016,551
2019-06-04T13:43:50,42.805,6.029,CST-1368DR,9205,12883,15556,0.015,551
2019-06-04T13:46:51,42.805,6.029,CST-1368DR,9205,12883,15556,0.015,551
2019-06-04T13:49:53,42.805,6.029,CST-1368DR,9205,12881,15554,0.016,550
2019-06-04T13:52:54,42.805,6.029,CST-1368DR,9205,12879,15551,0.017,551
2019-06-04T13:55:55,42.805,6.029,CST-1368DR,9205,12880,15552,0.016,551
2019-06-04T13:58:57,42.805,6.029,CST-1368DR,9205,12881,15553,0.016,551
2019-06-04T14:01:58,42.805,6.029,CST-1368DR,9205,12873,15544,0.018,551
2019-06-04T14:05:00,42.805,6.029,CST-1368DR,9205,12882,15554,0.016,551
2019-06-04T14:08:01,42.805,6.029,CST-1368DR,9205,12882,15554,0.016,551
2019-06-04T14:11:03,42.805,6.029,CST-1368DR,9205,12882,15555,0.016,551
2019-06-04T14:14:04,42.805,6.029,CST-1368DR,9205,12879,15551,0.017,550
2019-06-04T14:17:05,42.805,6.029,CST-1368DR,9205,12881,15553,0.016,551
2019-06-04T14:20:07,42.805,6.029,CST-1368DR,9204,12819,15480,0.035,551
2019-06-04T14:23:08,42.805,6.029,CST-1368DR,9205,12883,15556,0.015,550
2019-06-04T14:26:10,42.805,6.029,CST-1368DR,9205,12880,15553,0.016,551
2019-06-04T14:29:11,42.805,6.029,CST-1368DR,9205,12880,15553,0.016,551
2019-06-04T14:32:12,42.805,6.029,CST-1368DR,9205,12879,15552,0.016,551
2019-06-04T14:35:14,42.805,6.029,CST-1368DR,9205,12883,15556,0.015,551
2019-06-04T14:38:15,42.805,6.029,CST-1368DR,9204,12882,15557,0.015,551
2019-06-04T14:41:17,42.805,6.029,CST-1368DR,9205,12882,15555,0.016,551
2019-06-04T14:44:18,42.805,6.029,CST-1368DR,9204,12881,15556,0.015,551
2019-06-04T14:47:19,42.805,6.029,CST-1368DR,9204,12881,15555,0.016,551
2019-06-04T14:50:21,42.805,6.029,CST-1368DR,9205,12880,15552,0.016,551
2019-06-04T14:53:22,42.805,6.029,CST-1368DR,9204,12882,15557,0.015,551
2019-06-04T14:56:24,42.805,6.029,CST-1368DR,9204,12882,15556,0.015,551
2019-06-04T14:59:25,42.805,6.029,CST-1368DR,9204,12882,15557,0.015,550
2019-06-04T15:02:26,42.805,6.029,CST-1368DR,9204,12881,15556,0.015,551
2019-06-04T15:05:28,42.805,6.029,CST-1368DR,9204,12882,15557,0.015,550
2019-06-04T15:08:29,42.805,6.029,CST-1368DR,9204,12881,15555,0.016,551
2019-06-04T15:11:31,42.805,6.029,CST-1368DR,9204,12882,15557,0.015,551
2019-06-04T15:14:32,42.805,6.029,CST-1368DR,9204,12881,15555,0.016,551
2019-06-04T15:17:34,42.805,6.029,CST-1368DR,9204,12882,15556,0.015,551
2019-06-04T15:20:35,42.805,6.029,CST-1368DR,9204,12882,15557,0.015,550
2019-06-04T15:23:36,42.805,6.029,CST-1368DR,9204,12881,15555,0.016,551
2019-06-04T15:26:38,42.805,6.029,CST-1368DR,9204,12881,15555,0.016,551
2019-06-04T15:29:39,42.805,6.029,CST-1368DR,9204,12880,15554,0.016,551
2019-06-04T15:32:41,42.805,6.029,CST-1368DR,9204,12882,15557,0.015,551
2019-06-04T15:35:42,42.805,6.029,CST-1368DR,9204,12881,15556,0.015,551
2019-06-04T15:38:43,42.805,6.029,CST-1368DR,9204,12874,15547,0.018,551
2019-06-04T15:41:45,42.805,6.029,CST-1368DR,9204,12881,15555,0.016,550
2019-06-04T15:44:46,42.805,6.029,CST-1368DR,9204,12881,15556,0.015,551
2019-06-04T15:47:48,42.805,6.029,CST-1368DR,9204,12880,15554,0.016,551
2019-06-04T15:50:49,42.805,6.029,CST-1368DR,9204,12880,15554,0.016,551
2019-06-04T15:53:50,42.805,6.029,CST-1368DR,9204,12868,15539,0.020,551
2019-06-04T15:56:52,42.805,6.029,CST-1368DR,9204,12880,15554,0.016,550
2019-06-04T15:59:53,42.805,6.029,CST-1368DR,9204,12880,15554,0.016,551
2019-06-04T16:02:55,42.805,6.029,CST-1368DR,9204,12878,15551,0.017,550
2019-06-04T16:05:56,42.805,6.029,CST-1368DR,9203,12880,15555,0.016,551
2019-06-04T16:08:57,42.805,6.029,CST-1368DR,9204,12879,15553,0.016,551
2019-06-04T16:11:59,42.805,6.029,CST-1368DR,9204,12880,15554,0.016,551
2019-06-04T16:15:00,42.805,6.029,CST-1368DR,9203,12880,15555,0.016,551
2019-06-04T16:18:02,42.805,6.029,CST-1368DR,9203,12880,15555,0.016,551
2019-06-04T16:21:03,42.805,6.029,CST-1368DR,9203,12880,15555,0.016,551
2019-06-04T16:24:05,42.805,6.029,CST-1368DR,9204,12880,15554,0.016,551
2019-06-04T16:27:06,42.805,6.029,CST-1368DR,9203,12879,15555,0.016,551
2019-06-04T16:30:07,42.805,6.029,CST-1368DR,9204,12881,15555,0.016,551
2019-06-04T16:33:09,42.805,6.029,CST-1368DR,9203,12879,15554,0.016,551
2019-06-04T16:36:10,42.805,6.029,CST-1368DR,9203,12881,15556,0.015,551